Radiation Dose at Monitoring Post of Fukushima Daini Nuclear Power Station
Date,Time,MP-1(microSv/h),MP-2(microSv/h),MP-3(microSv/h),MP-4(microSv/h),MP-5(microSv/h),MP-6(microSv/h),MP-7(microSv/h),Wind Direction,Wind Velocity(m/s),Rain
2020/06/01,00:00,0.174,0.160,0.265,0.252,0.248,0.139,0.084,south-southwest,5.5,No
2020/06/01,00:10,0.176,0.160,0.266,0.254,0.248,0.137,0.084,south-southwest,3.9,No
2020/06/01,00:20,0.175,0.160,0.268,0.252,0.248,0.139,0.083,south-southwest,5.0,No
2020/06/01,00:30,0.176,0.161,0.264,0.254,0.250,0.138,0.083,south-southwest,5.4,No
2020/06/01,00:40,0.174,0.160,0.266,0.252,0.248,0.139,0.084,south-southwest,5.2,No
2020/06/01,00:50,0.173,0.160,0.264,0.253,0.249,0.138,0.084,south-southwest,5.8,No
2020/06/01,01:00,0.173,0.160,0.266,0.251,0.247,0.138,0.084,south-southwest,6.1,No
2020/06/01,01:10,0.174,0.160,0.265,0.254,0.249,0.139,0.084,south-southwest,5.1,No
2020/06/01,01:20,0.175,0.160,0.266,0.253,0.248,0.138,0.083,south-southwest,5.5,No
2020/06/01,01:30,0.173,0.160,0.266,0.252,0.248,0.139,0.084,south-southwest,4.9,No
2020/06/01,01:40,0.175,0.160,0.265,0.253,0.250,0.138,0.084,south-southwest,4.0,No
2020/06/01,01:50,0.174,0.160,0.267,0.253,0.246,0.140,0.084,south-southwest,3.1,No
2020/06/01,02:00,0.174,0.161,0.265,0.254,0.249,0.139,0.084,south,4.7,No
2020/06/01,02:10,0.174,0.160,0.266,0.252,0.247,0.139,0.084,south,5.9,No
2020/06/01,02:20,0.174,0.159,0.265,0.255,0.250,0.138,0.085,south,6.5,No
2020/06/01,02:30,0.174,0.161,0.267,0.251,0.250,0.139,0.084,south,6.7,No
2020/06/01,02:40,0.174,0.160,0.266,0.255,0.248,0.139,0.084,south,6.2,No
2020/06/01,02:50,0.176,0.160,0.266,0.253,0.250,0.137,0.084,south,7.0,No
2020/06/01,03:00,0.173,0.160,0.267,0.254,0.248,0.138,0.084,south,7.1,No
2020/06/01,03:10,0.175,0.160,0.266,0.253,0.249,0.138,0.083,south,6.7,No
2020/06/01,03:20,0.174,0.161,0.267,0.252,0.248,0.138,0.084,south,7.2,No
2020/06/01,03:30,0.175,0.160,0.265,0.254,0.250,0.138,0.084,south,6.5,No
2020/06/01,03:40,0.174,0.160,0.267,0.252,0.248,0.138,0.084,south,5.2,No
2020/06/01,03:50,0.175,0.161,0.264,0.253,0.249,0.140,0.084,south-southwest,5.1,No
2020/06/01,04:00,0.174,0.161,0.266,0.252,0.250,0.139,0.084,south,3.7,No
2020/06/01,04:10,0.174,0.160,0.265,0.254,0.247,0.138,0.084,south-southwest,4.6,No
2020/06/01,04:20,0.175,0.161,0.267,0.252,0.250,0.138,0.084,south,4.4,No
2020/06/01,04:30,0.173,0.160,0.266,0.255,0.247,0.138,0.084,south,4.9,No
2020/06/01,04:40,0.175,0.160,0.266,0.253,0.250,0.139,0.084,south,5.6,No
2020/06/01,04:50,0.175,0.160,0.266,0.253,0.248,0.138,0.084,south,5.4,No
2020/06/01,05:00,0.176,0.159,0.266,0.252,0.250,0.139,0.084,south,5.6,No
2020/06/01,05:10,0.173,0.161,0.266,0.253,0.249,0.138,0.085,south,5.8,No
2020/06/01,05:20,0.176,0.159,0.264,0.252,0.249,0.139,0.084,south,5.7,No
2020/06/01,05:30,0.174,0.160,0.266,0.254,0.249,0.139,0.084,south,5.6,No
2020/06/01,05:40,0.175,0.159,0.266,0.253,0.247,0.138,0.084,south,5.4,No
2020/06/01,05:50,0.174,0.160,0.267,0.252,0.250,0.139,0.084,south,5.7,No
2020/06/01,06:00,0.175,0.160,0.265,0.253,0.247,0.139,0.084,south,5.6,No
2020/06/01,06:10,0.174,0.160,0.266,0.251,0.249,0.138,0.084,south,5.8,No
2020/06/01,06:20,0.173,0.161,0.264,0.254,0.248,0.139,0.084,south,6.5,No
2020/06/01,06:30,0.174,0.160,0.267,0.250,0.246,0.139,0.084,south,7.3,No
2020/06/01,06:40,0.173,0.159,0.265,0.254,0.248,0.139,0.084,south,6.7,No
2020/06/01,06:50,0.176,0.158,0.265,0.252,0.248,0.138,0.083,south,7.0,No
2020/06/01,07:00,0.174,0.160,0.267,0.251,0.248,0.138,0.084,south,7.7,No
2020/06/01,07:10,0.175,0.160,0.265,0.254,0.251,0.139,0.084,south-southeast,7.8,No
2020/06/01,07:20,0.173,0.159,0.264,0.252,0.247,0.138,0.083,south,7.8,No
2020/06/01,07:30,0.173,0.159,0.263,0.251,0.248,0.139,0.084,south,8.1,No
2020/06/01,07:40,0.175,0.161,0.264,0.252,0.249,0.138,0.084,south,7.3,No
2020/06/01,07:50,0.174,0.160,0.267,0.254,0.248,0.137,0.084,south,8.4,No
2020/06/01,08:00,0.173,0.159,0.265,0.252,0.247,0.138,0.084,south,8.3,No
2020/06/01,08:10,0.174,0.159,0.264,0.250,0.250,0.138,0.083,south,7.4,No
2020/06/01,08:20,0.174,0.161,0.262,0.253,0.249,0.137,0.083,south,7.9,No
2020/06/01,08:30,0.173,0.162,0.263,0.253,0.247,0.138,0.083,south-southeast,7.6,No
2020/06/01,08:40,0.174,0.159,0.267,0.251,0.250,0.139,0.083,south-southeast,9.2,No
2020/06/01,08:50,0.174,0.159,0.266,0.252,0.248,0.138,0.083,south,10.1,No
2020/06/01,09:00,0.173,0.160,0.264,0.255,0.247,0.138,0.084,south-southeast,9.5,No
2020/06/01,09:10,0.174,0.161,0.263,0.253,0.247,0.139,0.084,south,9.2,No
2020/06/01,09:20,0.175,0.159,0.267,0.250,0.250,0.138,0.084,south-southeast,10.1,No
2020/06/01,09:30,0.173,0.158,0.267,0.250,0.247,0.138,0.083,south,10.0,No
2020/06/01,09:40,0.173,0.160,0.265,0.254,0.247,0.139,0.084,south,10.1,No
2020/06/01,09:50,0.173,0.161,0.264,0.253,0.246,0.139,0.083,south,9.5,No
2020/06/01,10:00,0.175,0.160,0.264,0.252,0.248,0.137,0.083,south,8.9,No
2020/06/01,10:10,0.174,0.159,0.267,0.254,0.249,0.139,0.084,south,6.6,No
2020/06/01,10:20,0.173,0.160,0.265,0.255,0.247,0.139,0.084,south,6.3,No
2020/06/01,10:30,0.175,0.161,0.264,0.250,0.251,0.138,0.083,south-southwest,8.4,No
2020/06/01,10:40,0.174,0.161,0.265,0.255,0.249,0.139,0.084,south-southwest,6.7,No
2020/06/01,10:50,0.173,0.159,0.268,0.255,0.248,0.139,0.084,south,6.4,No
2020/06/01,11:00,0.174,0.160,0.265,0.252,0.247,0.139,0.083,south,7.3,No
2020/06/01,11:10,0.175,0.161,0.263,0.252,0.250,0.139,0.084,south,7.8,No
2020/06/01,11:20,0.173,0.159,0.267,0.253,0.248,0.139,0.084,south,7.3,No
2020/06/01,11:30,0.174,0.160,0.267,0.252,0.245,0.139,0.083,south,7.3,No
2020/06/01,11:40,0.176,0.161,0.265,0.253,0.252,0.138,0.084,south-southwest,6.0,No
2020/06/01,11:50,0.174,0.160,0.263,0.255,0.250,0.138,0.084,south-southwest,7.1,No
2020/06/01,12:00,0.173,0.159,0.268,0.252,0.248,0.138,0.084,south-southwest,6.1,No
2020/06/01,12:10,0.174,0.161,0.266,0.252,0.248,0.139,0.083,south-southwest,5.9,Yes
2020/06/01,12:20,0.176,0.161,0.264,0.255,0.251,0.139,0.084,south-southwest,4.8,Yes
2020/06/01,12:30,0.173,0.158,0.268,0.254,0.248,0.139,0.084,south,4.3,Yes
2020/06/01,12:40,0.176,0.160,0.266,0.251,0.247,0.138,0.085,south,5.6,No
2020/06/01,12:50,0.176,0.161,0.264,0.254,0.250,0.138,0.084,south,6.6,No
2020/06/01,13:00,0.173,0.159,0.263,0.253,0.249,0.139,0.083,south,7.1,No
2020/06/01,13:10,0.173,0.158,0.264,0.252,0.247,0.138,0.084,south,7.7,No
2020/06/01,13:20,0.173,0.159,0.268,0.250,0.246,0.138,0.083,south,8.4,No
2020/06/01,13:30,0.176,0.160,0.267,0.254,0.249,0.138,0.084,south,8.1,No
2020/06/01,13:40,0.174,0.161,0.266,0.253,0.250,0.139,0.084,south-southeast,9.3,No
2020/06/01,13:50,0.173,0.159,0.267,0.251,0.248,0.139,0.084,south-southeast,8.6,No
2020/06/01,14:00,0.176,0.162,0.269,0.254,0.248,0.139,0.084,south,9.8,No
2020/06/01,14:10,0.175,0.161,0.265,0.253,0.250,0.139,0.084,south-southeast,8.6,No
2020/06/01,14:20,0.173,0.159,0.266,0.251,0.247,0.138,0.084,south,7.3,No
2020/06/01,14:30,0.175,0.159,0.268,0.255,0.247,0.138,0.084,south,7.6,No
2020/06/01,14:40,0.175,0.160,0.266,0.254,0.250,0.138,0.084,south,7.9,No
2020/06/01,14:50,0.173,0.160,0.265,0.252,0.250,0.138,0.083,south,7.8,No
2020/06/01,15:00,0.175,0.160,0.268,0.253,0.248,0.138,0.084,south-southeast,8.9,No
2020/06/01,15:10,0.174,0.160,0.268,0.253,0.251,0.139,0.085,south,7.6,No
2020/06/01,15:20,0.174,0.159,0.267,0.253,0.249,0.138,0.084,south,7.9,No
2020/06/01,15:30,0.176,0.161,0.268,0.256,0.247,0.139,0.085,south,7.9,No
2020/06/01,15:40,0.174,0.160,0.265,0.253,0.251,0.139,0.084,south-southeast,8.6,No
2020/06/01,15:50,0.174,0.159,0.267,0.254,0.247,0.138,0.084,south-southeast,8.1,No
2020/06/01,16:00,0.175,0.161,0.266,0.254,0.250,0.138,0.085,south,7.7,No
2020/06/01,16:10,0.173,0.159,0.265,0.252,0.250,0.138,0.084,south,8.4,No
2020/06/01,16:20,0.176,0.161,0.269,0.254,0.246,0.138,0.084,south,8.5,No
2020/06/01,16:30,0.175,0.161,0.266,0.252,0.249,0.138,0.084,south-southeast,8.2,No
2020/06/01,16:40,0.174,0.160,0.267,0.254,0.248,0.138,0.084,south,9.6,No
2020/06/01,16:50,0.175,0.161,0.268,0.254,0.247,0.138,0.084,south-southeast,9.0,No
2020/06/01,17:00,0.174,0.160,0.265,0.253,0.250,0.139,0.084,south,9.5,No
2020/06/01,17:10,0.177,0.161,0.268,0.254,0.247,0.138,0.084,south,9.6,No
2020/06/01,17:20,0.174,0.161,0.266,0.253,0.250,0.139,0.084,south,9.8,No
2020/06/01,17:30,0.175,0.161,0.267,0.252,0.249,0.138,0.084,south,8.1,No
2020/06/01,17:40,0.175,0.160,0.268,0.253,0.249,0.138,0.085,south-southeast,8.6,No
2020/06/01,17:50,0.174,0.160,0.265,0.252,0.250,0.140,0.083,south,8.6,No
2020/06/01,18:00,0.176,0.162,0.267,0.254,0.247,0.138,0.084,south,9.5,No
2020/06/01,18:10,0.174,0.160,0.267,0.253,0.250,0.138,0.084,south,10.1,No
2020/06/01,18:20,0.175,0.161,0.267,0.255,0.248,0.138,0.084,south,9.5,No
2020/06/01,18:30,0.175,0.160,0.268,0.252,0.249,0.139,0.084,south,8.7,No
2020/06/01,18:40,0.174,0.160,0.266,0.254,0.250,0.140,0.084,south,8.9,No
2020/06/01,18:50,0.174,0.161,0.268,0.253,0.247,0.138,0.085,south,8.4,No
2020/06/01,19:00,0.174,0.160,0.265,0.253,0.248,0.139,0.084,south,8.1,No
2020/06/01,19:10,0.174,0.160,0.269,0.254,0.247,0.140,0.085,south,8.1,No
2020/06/01,19:20,0.175,0.159,0.266,0.253,0.251,0.138,0.084,south,7.4,No
2020/06/01,19:30,0.174,0.161,0.267,0.256,0.249,0.139,0.084,south,7.7,No
2020/06/01,19:40,0.176,0.160,0.266,0.253,0.249,0.138,0.084,south,7.3,No
2020/06/01,19:50,0.174,0.160,0.265,0.254,0.250,0.139,0.084,south,7.8,No
2020/06/01,20:00,0.175,0.160,0.268,0.253,0.247,0.139,0.084,south,7.5,No
2020/06/01,20:10,0.175,0.160,0.264,0.254,0.250,0.138,0.083,south,6.9,No
2020/06/01,20:20,0.176,0.160,0.267,0.254,0.247,0.139,0.084,south,6.0,No
2020/06/01,20:30,0.174,0.159,0.265,0.253,0.250,0.138,0.083,south,5.8,No
2020/06/01,20:40,0.174,0.161,0.267,0.255,0.249,0.139,0.084,south,6.9,No
2020/06/01,20:50,0.176,0.160,0.267,0.252,0.248,0.139,0.084,south,8.2,No
2020/06/01,21:00,0.174,0.160,0.266,0.254,0.251,0.138,0.084,south,8.2,No
2020/06/01,21:10,0.175,0.160,0.268,0.251,0.247,0.139,0.084,south,8.5,No
2020/06/01,21:20,0.175,0.161,0.264,0.253,0.251,0.139,0.083,south,8.2,No
2020/06/01,21:30,0.174,0.160,0.268,0.254,0.248,0.138,0.085,south,6.6,No
2020/06/01,21:40,0.175,0.160,0.265,0.253,0.249,0.138,0.083,south,6.2,No
2020/06/01,21:50,0.174,0.161,0.267,0.255,0.249,0.139,0.084,south,6.6,No
2020/06/01,22:00,0.176,0.161,0.266,0.254,0.249,0.139,0.084,south,6.7,No
2020/06/01,22:10,0.175,0.162,0.268,0.256,0.250,0.138,0.084,south,6.9,No
2020/06/01,22:20,0.175,0.159,0.265,0.252,0.248,0.139,0.084,south,6.1,No
2020/06/01,22:30,0.175,0.161,0.266,0.254,0.249,0.139,0.084,south,7.7,No
2020/06/01,22:40,0.175,0.159,0.266,0.252,0.247,0.138,0.084,south,6.9,No
2020/06/01,22:50,0.174,0.162,0.266,0.252,0.249,0.139,0.084,south,6.7,No
2020/06/01,23:00,0.174,0.160,0.268,0.254,0.249,0.139,0.084,south,8.1,No
2020/06/01,23:10,0.175,0.160,0.265,0.251,0.248,0.138,0.084,south,6.4,No
2020/06/01,23:20,0.174,0.160,0.268,0.253,0.251,0.138,0.084,south,6.5,No
2020/06/01,23:30,0.174,0.161,0.265,0.252,0.248,0.139,0.084,south,6.7,No
2020/06/01,23:40,0.175,0.161,0.265,0.254,0.251,0.139,0.084,south,6.1,No
2020/06/01,23:50,0.174,0.160,0.267,0.252,0.248,0.138,0.084,south,6.3,No
